Lid_Strength_Index
4 4 4 3 3 3 4 6 9 3 1 8 8 10 9 9 9 8 9 9 10 10 9 9 9 10 8 5 6 9 7 10 12 10 8 6 7 8 9 13 13 11 12 12
3 3 3 3 3 2 3 8 7 3 3 11 10 8 9 8 9 9 10 10 9 8 10 11 9 8 6 5 7 9 8 12 15 12 9 7 9 8 8 8 10 12 14 12
3 3 3 3 3 3 3 7 11 8 6 7 9 9 9 10 8 9 9 9 9 10 10 8 10 9 7 5 6 7 7 10 13 16 12 9 11 9 8 9 12 12 11 10
3 3 3 3 3 3 4 7 9 8 11 11 9 8 9 10 10 7 7 9 9 10 11 11 11 9 8 7 5 6 9 14 11 10 10 9 10 10 9 10 9 11 10 9
3 3 3 3 3 3 6 9 9 8 8 7 9 9 10 10 9 8 9 9 8 7 9 9 11 9 9 10 8 7 8 13 12 13 10 10 11 9 9 9 9 9 8 8
4 3 3 3 3 3 6 5 7 6 9 9 10 10 9 9 8 7 7 7 8 7 7 6 6 6 7 8 9 8 9 12 14 16 11 12 14 10 9 9 8 8 10 7
4 4 4 3 3 3 4 4 5 10 13 11 11 10 9 9 8 9 7 6 7 5 3 4 5 6 7 8 9 8 10 11 14 16 15 20 12 7 7 8 8 7 7 6
4 4 4 3 3 2 3 3 6 8 12 11 11 10 10 8 7 7 7 5 3 3 4 8 10 10 9 9 8 8 8 10 13 18 17 13 11 9 9 9 9 6 7 6
4 3 3 2 2 2 2 3 3 6 11 12 9 10 10 10 9 8 6 3 2 3 7 10 14 15 11 12 10 7 7 7 12 14 19 19 11 7 6 6 13 6 6 6
3 3 2 2 2 2 2 4 2 6 12 10 9 10 10 7 7 8 7 6 5 4 9 12 13 14 9 13 13 12 10 10 13 14 16 14 10 7 5 14 11 6 6 6
2 2 2 2 2 2 3 5 3 6 10 9 7 7 8 7 7 9 6 7 7 8 11 11 11 12 10 10 9 10 11 12 15 13 16 17 8 7 10 7 5 6 5 6
2 2 2 2 2 2 3 7 5 4 8 8 5 5 4 4 4 6 5 7 6 7 8 8 8 11 10 10 14 7 11 9 11 13 12 7 5 5 4 4 5 5 5 5
2 2 2 2 3 3 3 5 5 6 9 9 7 7 3 2 2 0 6 5 4 5 4 7 8 12 8 13 11 9 7 6 10 11 10 9 6 5 5 4 5 4 4 4
2 2 2 2 3 3 3 5 5 6 7 11 9 2 3 1 1 1 1 3 2 3 4 8 10 11 6 10 9 10 8 8 10 12 10 9 8 5 5 5 5 4 4 4
1 2 2 3 3 3 2 3 3 4 7 9 7 4 2 2 1 2 2 2 4 5 8 9 10 7 8 8 8 10 8 9 12 14 10 10 10 5 5 5 5 4 4 4
2 2 3 3 2 2 3 8 3 3 4 7 9 3 4 2 2 2 3 3 4 5 7 8 7 5 8 11 11 8 7 7 8 9 8 10 10 5 4 4 4 4 4 4
2 2 3 3 3 3 8 7 4 2 3 8 9 8 3 2 3 3 4 3 4 5 7 8 8 7 7 10 13 9 8 8 9 9 10 13 7 6 4 4 4 5 5 6
3 3 3 3 3 3 6 4 2 2 5 7 10 8 7 2 6 7 3 6 5 6 8 6 8 7 7 12 10 9 9 9 9 9 9 9 4 4 4 4 5 7 9 10
3 3 3 2 4 7 5 2 2 3 5 8 8 9 10 4 6 5 6 6 10 6 9 8 7 9 12 11 10 10 10 10 11 10 5 5 5 5 6 7 8 10 11 12
3 3 5 10 6 2 2 5 8 9 8 8 8 5 9 6 8 9 9 8 10 12 9 6 9 10 8 8 8 8 8 9 6 7 7 6 7 8 8 9 10 11 13 13
3 6 9 5 4 5 6 10 10 9 10 8 7 6 8 5 10 10 8 10 9 12 10 10 11 12 8 7 8 8 7 7 5 5 5 7 8 10 11 12 13 13 13 14
4 4 4 5 6 8 10 11 9 10 11 8 9 8 6 8 7 9 9 11 10 14 9 12 13 9 7 6 7 6 7 7 8 8 9 9 11 12 13 14 14 14 14 14
2 5 7 8 9 12 12 13 11 11 8 9 9 10 8 9 8 9 10 12 12 9 12 13 11 10 10 10 10 10 10 10 10 11 12 12 13 13 13 15 14 14 15 15
5 9 12 11 11 10 9 9 9 8 8 9 9 10 10 10 11 10 13 10 11 13 15 14 11 12 12 11 11 12 12 13 13 14 14 14 15 15 15 15 15 15 15 15
7 7 11 10 8 7 8 8 9 9 8 9 9 9 9 10 11 11 11 14 15 14 14 12 12 12 12 13 13 13 13 13 13 13 14 15 15 15 15 14 14 14 15 16
6 7 9 7 8 9 8 8 8 6 6 6 7 10 11 12 11 13 13 14 15 12 12 11 11 12 12 12 12 11 11 12 13 13 13 14 15 15 15 15 15 16 16 17
8 8 6 6 6 7 6 6 5 4 6 9 8 11 12 9 12 13 10 12 12 12 12 11 11 11 12 12 12 12 12 12 13 13 13 13 14 14 15 16 15 15 16 16